DW7764 Weather Reports


Display with metric or nautical units.
time (UTC)temp
F
wind
direction
speed
MPH
gust
MPH
rain 1hr
in
rain 24hr
in
rain mn
in
humidity
%
barometer
mb
20260504044526 57 325 0.0 0.0 0.00 0.00 0.00 94 1017.8
20260504043028 57 325 0.0 1.0 0.00 0.00 0.00 95 1017.8
20260504041527 57 325 0.0 0.0 0.00 0.00 0.00 95 1017.8
20260504040024 57 324 0.0 0.0 0.00 0.00 0.00 95 1017.8
20260504034523 57 325 0.0 0.0 0.00 0.00 0.00 95 1017.9
20260504033022 57 325 0.0 0.0 0.00 0.00 0.00 95 1018.0
20260504031521 57 325 0.0 0.0 0.00 0.00 0.00 94 1017.9
20260504030021 57 325 0.0 0.0 0.00 0.00 0.00 95 1018.2
20260504024520 57 325 0.0 0.0 0.00 0.00 0.00 95 1018.0
20260504023019 57 325 0.0 0.0 0.00 0.00 0.00 95 1018.0
20260504021518 57 325 0.0 0.0 0.00 0.00 0.00 94 1017.9
20260504020029 57 325 0.0 0.0 0.00 0.00 0.00 95 1018.2
20260504014515 57 325 0.0 0.0 0.00 0.00 0.00 94 1018.3
20260504013019 57 325 0.0 0.0 0.00 0.00 0.00 93 1018.3
20260504011512 57 325 0.0 0.0 0.00 0.00 0.00 94 1018.5
20260504010012 57 325 0.0 0.0 0.00 0.00 0.00 94 1018.5
20260504004524 57 325 0.0 0.0 0.00 0.00 0.00 94 1018.7
20260504003007 57 325 0.0 0.0 0.00 0.00 0.00 94 1019.0
20260504001521 57 324 0.0 0.0 0.00 0.00 0.00 94 1018.9
20260504000006 57 325 0.0 1.0 0.00 0.00 0.00 94 1019.0
20260503234507 57 325 0.0 0.0 0.00 0.00 0.00 94 1019.0
20260503233005 57 325 0.0 0.0 0.00 0.00 0.00 94 1019.1
20260503231503 57 325 0.0 0.0 0.00 0.00 0.00 94 1019.2
20260503230002 57 325 0.0 0.0 0.00 0.00 0.00 94 1019.3
20260503224614 57 325 0.0 0.0 0.00 0.00 0.00 94 1019.2
20260503223112 57 325 0.0 0.0 0.00 0.00 0.00 94 1019.3
20260503221558 57 325 0.0 0.0 0.00 0.00 0.00 94 1019.3
20260503220057 57 325 0.0 0.0 0.00 0.00 0.00 94 1019.2
20260503214558 57 13 0.0 2.0 0.00 0.00 0.00 94 1019.2
20260503213056 58 336 0.0 3.0 0.00 0.00 0.00 94 1019.4
20260503211552 58 152 0.0 2.0 0.00 0.00 0.00 92 1019.4
20260503210050 59 152 0.0 1.0 0.00 0.00 0.00 91 1019.6
20260503204550 59 152 0.0 2.0 0.00 0.00 0.00 90 1019.5
20260503203049 59 153 0.0 0.0 0.00 0.00 0.00 89 1019.4
20260503201551 59 152 0.0 0.0 0.00 0.00 0.00 89 1019.6
20260503200048 59 153 0.0 1.0 0.00 0.00 0.00 90 1019.5
20260503194558 59 153 0.0 0.0 0.00 0.00 0.00 91 1019.4
20260503193147 59 152 0.0 1.0 0.00 0.00 0.00 91 1019.2
20260503191551 59 152 0.0 1.0 0.00 0.00 0.00 90 1019.1
20260503190047 59 152 0.0 1.0 0.00 0.00 0.00 90 1019.0
20260503184544 59 100 0.0 3.0 0.00 0.00 0.00 90 1019.1
20260503183052 60 113 0.0 2.0 0.00 0.00 0.00 89 1019.1
20260503181557 60 133 0.0 3.0 0.00 0.00 0.00 86 1019.0
20260503180048 61 132 0.0 4.0 0.00 0.00 0.00 83 1019.0
20260503174547 61 143 0.0 2.0 0.00 0.00 0.00 81 1019.0
20260503173042 61 119 2.0 3.0 0.00 0.00 0.00 80 1018.7
20260503171540 61 115 1.0 5.0 0.00 0.00 0.00 77 1018.7
20260503081559 64 128 2.0 5.0 0.00 0.00 0.00 77 1021.4
20260503071550 62 121 0.0 4.0 0.00 0.00 0.00 85 1021.6
20260503054541 60 127 0.0 0.0 0.00 0.00 0.00 90 1021.5